Year,Month,Day,Hour,Minute,Value (Times are PST for temperature in C)
2015,04,07,00,00,4.70
2015,04,07,00,01,4.70
2015,04,07,00,02,4.70
2015,04,07,00,03,4.70
2015,04,07,00,04,4.60
2015,04,07,00,05,4.60
2015,04,07,00,06,4.60
2015,04,07,00,07,4.60
2015,04,07,00,08,4.50
2015,04,07,00,09,4.50
2015,04,07,00,10,4.50
2015,04,07,00,11,4.40
2015,04,07,00,12,4.40
2015,04,07,00,13,4.40
2015,04,07,00,14,4.40
2015,04,07,00,15,4.40
2015,04,07,00,16,4.40
2015,04,07,00,17,4.40
2015,04,07,00,18,4.40
2015,04,07,00,19,4.40
2015,04,07,00,20,4.40
2015,04,07,00,21,4.40
2015,04,07,00,22,4.30
2015,04,07,00,23,4.30
2015,04,07,00,24,4.30
2015,04,07,00,25,4.40
2015,04,07,00,26,4.40
2015,04,07,00,27,4.40
2015,04,07,00,28,4.50
2015,04,07,00,29,4.50
2015,04,07,00,30,4.60
2015,04,07,00,31,4.60
2015,04,07,00,32,4.60
2015,04,07,00,33,4.60
2015,04,07,00,34,4.60
2015,04,07,00,35,4.60
2015,04,07,00,36,4.60
2015,04,07,00,37,4.60
2015,04,07,00,38,4.70
2015,04,07,00,39,4.70
2015,04,07,00,40,4.70
2015,04,07,00,41,4.70
2015,04,07,00,42,4.70
2015,04,07,00,43,4.80
2015,04,07,00,44,4.80
2015,04,07,00,45,4.80
2015,04,07,00,46,4.80
2015,04,07,00,47,4.70
2015,04,07,00,48,4.70
2015,04,07,00,49,4.70
2015,04,07,00,50,4.70
2015,04,07,00,51,4.70
2015,04,07,00,52,4.60
2015,04,07,00,53,4.60
2015,04,07,00,54,4.60
2015,04,07,00,55,4.60
2015,04,07,00,56,4.60
2015,04,07,00,57,4.60
2015,04,07,00,58,4.60
2015,04,07,00,59,4.60
2015,04,07,01,00,4.60
2015,04,07,01,01,4.60
2015,04,07,01,02,4.60
2015,04,07,01,03,4.60
2015,04,07,01,04,4.60
2015,04,07,01,05,4.60
2015,04,07,01,06,4.60
2015,04,07,01,07,4.60
2015,04,07,01,08,4.60
2015,04,07,01,09,4.60
2015,04,07,01,10,4.60
2015,04,07,01,11,4.60
2015,04,07,01,12,4.60
2015,04,07,01,13,4.60
2015,04,07,01,14,4.60
2015,04,07,01,15,4.60
2015,04,07,01,16,4.60
2015,04,07,01,17,4.60
2015,04,07,01,18,4.60
2015,04,07,01,19,4.60
2015,04,07,01,20,4.50
2015,04,07,01,21,4.50
2015,04,07,01,22,4.40
2015,04,07,01,23,4.40
2015,04,07,01,24,4.40
2015,04,07,01,25,4.40
2015,04,07,01,26,4.40
2015,04,07,01,27,4.40
2015,04,07,01,28,4.40
2015,04,07,01,29,4.40
2015,04,07,01,30,4.40
2015,04,07,01,31,4.40
2015,04,07,01,32,4.30
2015,04,07,01,33,4.30
2015,04,07,01,34,4.30
2015,04,07,01,35,4.20
2015,04,07,01,36,4.20
2015,04,07,01,37,4.20
2015,04,07,01,38,4.20
2015,04,07,01,39,4.20
2015,04,07,01,40,4.20
2015,04,07,01,41,4.20
2015,04,07,01,42,4.20
2015,04,07,01,43,4.20
2015,04,07,01,44,4.20
2015,04,07,01,45,4.20
2015,04,07,01,46,4.20
2015,04,07,01,47,4.10
2015,04,07,01,48,4.10
2015,04,07,01,49,4.10
2015,04,07,01,50,4.10
2015,04,07,01,51,4.10
2015,04,07,01,52,4.10
2015,04,07,01,53,4.10
2015,04,07,01,54,4.10
2015,04,07,01,55,4.00
2015,04,07,01,56,4.00
2015,04,07,01,57,4.00
2015,04,07,01,58,3.90
2015,04,07,01,59,3.90
2015,04,07,02,00,3.90
2015,04,07,02,01,3.90
2015,04,07,02,02,3.90
2015,04,07,02,03,3.80
2015,04,07,02,04,3.80
2015,04,07,02,05,3.80
2015,04,07,02,06,3.80
2015,04,07,02,07,3.80
2015,04,07,02,08,3.80
2015,04,07,02,09,3.80
2015,04,07,02,10,3.70
2015,04,07,02,11,3.70
2015,04,07,02,12,3.70
2015,04,07,02,13,3.70
2015,04,07,02,14,3.70
2015,04,07,02,15,3.70
2015,04,07,02,16,3.60
2015,04,07,02,17,3.60
2015,04,07,02,18,3.60
2015,04,07,02,19,3.60
2015,04,07,02,20,3.60
2015,04,07,02,21,3.60
2015,04,07,02,22,3.60
2015,04,07,02,23,3.60
2015,04,07,02,24,3.60
2015,04,07,02,25,3.60
2015,04,07,02,26,3.60
2015,04,07,02,27,3.60
2015,04,07,02,28,3.50
2015,04,07,02,29,3.50
2015,04,07,02,30,3.50
2015,04,07,02,31,3.50
2015,04,07,02,32,3.50
2015,04,07,02,33,3.50
2015,04,07,02,34,3.50
2015,04,07,02,35,3.40
2015,04,07,02,36,3.40
2015,04,07,02,37,3.40
2015,04,07,02,38,3.40
2015,04,07,02,39,3.40
2015,04,07,02,40,3.40
2015,04,07,02,41,3.40
2015,04,07,02,42,3.40
2015,04,07,02,43,3.40
2015,04,07,02,44,3.40
2015,04,07,02,45,3.40
2015,04,07,02,46,3.40
2015,04,07,02,47,3.40
2015,04,07,02,48,3.40
2015,04,07,02,49,3.40
2015,04,07,02,50,3.40
2015,04,07,02,51,3.40
2015,04,07,02,52,3.30
2015,04,07,02,53,3.30
2015,04,07,02,54,3.30
2015,04,07,02,55,3.30
2015,04,07,02,56,3.30
2015,04,07,02,57,3.30
2015,04,07,02,58,3.30
2015,04,07,02,59,3.30
2015,04,07,03,00,3.30
2015,04,07,03,01,3.30
2015,04,07,03,02,3.30
2015,04,07,03,03,3.30
2015,04,07,03,04,3.30
2015,04,07,03,05,3.30
2015,04,07,03,06,3.30
2015,04,07,03,07,3.30
2015,04,07,03,08,3.30
2015,04,07,03,09,3.30
2015,04,07,03,10,3.30
2015,04,07,03,11,3.30
2015,04,07,03,12,3.30
2015,04,07,03,13,3.40
2015,04,07,03,14,3.30
2015,04,07,03,15,3.30
2015,04,07,03,16,3.30
2015,04,07,03,17,3.30
2015,04,07,03,18,3.30
2015,04,07,03,19,3.30
2015,04,07,03,20,3.30
2015,04,07,03,21,3.30
2015,04,07,03,22,3.30
2015,04,07,03,23,3.30
2015,04,07,03,24,3.30
2015,04,07,03,25,3.30
2015,04,07,03,26,3.30
2015,04,07,03,27,3.30
2015,04,07,03,28,3.30
2015,04,07,03,29,3.30
2015,04,07,03,30,3.30
2015,04,07,03,31,3.30
2015,04,07,03,32,3.30
2015,04,07,03,33,3.30
2015,04,07,03,34,3.30
2015,04,07,03,35,3.20
2015,04,07,03,36,3.20
2015,04,07,03,37,3.20
2015,04,07,03,38,3.20
2015,04,07,03,39,3.20
2015,04,07,03,40,3.20
2015,04,07,03,41,3.10
2015,04,07,03,42,3.10
2015,04,07,03,43,3.10
2015,04,07,03,44,3.10
2015,04,07,03,45,3.10
2015,04,07,03,46,3.10
2015,04,07,03,47,3.10
2015,04,07,03,48,3.10
2015,04,07,03,49,3.10
2015,04,07,03,50,3.10
2015,04,07,03,51,3.10
2015,04,07,03,52,3.10
2015,04,07,03,53,3.10
2015,04,07,03,54,3.10
2015,04,07,03,55,3.10
2015,04,07,03,56,3.10
2015,04,07,03,57,3.10
2015,04,07,03,58,3.10
2015,04,07,03,59,3.10
2015,04,07,04,00,3.10
2015,04,07,04,01,3.10
2015,04,07,04,02,3.10
2015,04,07,04,03,3.10
2015,04,07,04,04,3.10
2015,04,07,04,05,3.10
2015,04,07,04,06,3.10
2015,04,07,04,07,3.10
2015,04,07,05,02,2.40
2015,04,07,05,03,2.40
2015,04,07,05,04,2.30
2015,04,07,05,05,2.30
2015,04,07,05,06,2.30
2015,04,07,05,07,2.30
2015,04,07,05,08,2.30
2015,04,07,05,09,2.30
2015,04,07,05,10,2.30
2015,04,07,05,11,2.30
2015,04,07,05,12,2.30
2015,04,07,05,13,2.30
2015,04,07,05,14,2.30
2015,04,07,05,15,2.30
2015,04,07,05,16,2.30
2015,04,07,05,17,2.30
2015,04,07,05,18,2.30
2015,04,07,05,19,2.30
2015,04,07,05,20,2.30
2015,04,07,05,21,2.30
2015,04,07,05,22,2.30
2015,04,07,05,23,2.30
2015,04,07,05,24,2.30
2015,04,07,05,25,2.30
2015,04,07,05,26,2.40
2015,04,07,05,27,2.40
2015,04,07,05,28,2.40
2015,04,07,05,29,2.40
2015,04,07,05,30,2.40
2015,04,07,05,31,2.40
2015,04,07,05,32,2.30
2015,04,07,05,33,2.30
2015,04,07,05,34,2.30
2015,04,07,05,35,2.30
2015,04,07,05,36,2.30
2015,04,07,05,37,2.30
2015,04,07,05,38,2.30
2015,04,07,05,39,2.30
2015,04,07,05,40,2.30
2015,04,07,05,41,2.30
2015,04,07,05,42,2.30
2015,04,07,05,43,2.30
2015,04,07,05,44,2.30
2015,04,07,05,45,2.30
2015,04,07,05,46,2.30
2015,04,07,05,47,2.30
2015,04,07,05,48,2.20
2015,04,07,05,49,2.20
2015,04,07,05,50,2.20
2015,04,07,05,51,2.20
2015,04,07,05,52,2.20
2015,04,07,05,53,2.10
2015,04,07,05,54,2.10
2015,04,07,05,55,2.10
2015,04,07,05,56,2.10
2015,04,07,05,57,2.00
2015,04,07,05,58,2.00
2015,04,07,05,59,2.00
2015,04,07,06,00,1.90
2015,04,07,06,01,1.90
2015,04,07,06,02,1.90
2015,04,07,06,03,1.90
2015,04,07,06,04,1.90
2015,04,07,06,05,1.90
2015,04,07,06,06,1.80
2015,04,07,06,07,1.80
2015,04,07,06,08,1.80
2015,04,07,06,09,1.80
2015,04,07,06,10,1.80
2015,04,07,06,11,1.80
2015,04,07,06,12,1.80
2015,04,07,06,13,1.80
2015,04,07,06,14,1.80
2015,04,07,06,15,1.80
2015,04,07,06,16,1.80
2015,04,07,06,17,1.80
2015,04,07,06,18,1.80
2015,04,07,06,19,1.80
2015,04,07,06,20,1.70
2015,04,07,06,21,1.70
2015,04,07,06,22,1.70
2015,04,07,06,23,1.70
2015,04,07,06,24,1.70
2015,04,07,06,25,1.70
2015,04,07,06,26,1.60
2015,04,07,06,27,1.60
2015,04,07,06,28,1.70
2015,04,07,06,29,1.80
2015,04,07,06,30,1.80
2015,04,07,06,31,1.90
2015,04,07,06,32,1.90
2015,04,07,06,33,1.90
2015,04,07,06,34,1.90
2015,04,07,06,35,1.90
2015,04,07,06,36,1.80
2015,04,07,06,37,1.80
2015,04,07,06,38,1.80
2015,04,07,06,39,1.80
2015,04,07,06,40,1.80
2015,04,07,06,41,1.80
2015,04,07,06,42,1.80
2015,04,07,06,43,1.80
2015,04,07,06,44,1.80
2015,04,07,06,45,1.90
2015,04,07,06,46,1.90
2015,04,07,06,47,1.90
2015,04,07,06,48,1.90
2015,04,07,06,49,1.90
2015,04,07,06,50,1.90
2015,04,07,06,51,1.90
2015,04,07,06,52,1.90
2015,04,07,06,53,1.90
2015,04,07,06,54,1.90
2015,04,07,06,55,1.90
2015,04,07,06,56,1.90
2015,04,07,06,57,1.90
2015,04,07,06,58,1.90
2015,04,07,06,59,1.90
2015,04,07,07,00,1.90
2015,04,07,07,01,1.90
2015,04,07,07,02,1.80
2015,04,07,07,03,1.80
2015,04,07,07,04,1.80
2015,04,07,07,05,1.80
2015,04,07,07,06,1.80
2015,04,07,07,07,1.80
2015,04,07,07,08,1.80
2015,04,07,07,09,1.80
2015,04,07,07,10,1.70
2015,04,07,07,11,1.80
2015,04,07,07,12,1.70
2015,04,07,07,13,1.70
2015,04,07,07,14,1.70
2015,04,07,07,15,1.70
2015,04,07,07,16,1.70
2015,04,07,07,17,1.70
2015,04,07,07,18,1.70
2015,04,07,07,19,1.70
2015,04,07,07,20,1.70
2015,04,07,07,21,1.70
2015,04,07,07,22,1.70
2015,04,07,07,23,1.70
2015,04,07,07,24,1.70
2015,04,07,07,25,1.70
2015,04,07,07,26,1.70
2015,04,07,07,27,1.70
2015,04,07,07,28,1.70
2015,04,07,07,29,1.70
2015,04,07,07,30,1.70
2015,04,07,07,31,1.70
2015,04,07,07,32,1.70
2015,04,07,07,33,1.70
2015,04,07,07,34,1.70
2015,04,07,07,35,1.70
2015,04,07,07,36,1.70
2015,04,07,07,37,1.70
2015,04,07,07,38,1.70
2015,04,07,07,39,1.70
2015,04,07,07,40,1.70
2015,04,07,07,41,1.70
2015,04,07,07,42,1.70
2015,04,07,07,43,1.70
2015,04,07,07,44,1.70
2015,04,07,07,45,1.70
2015,04,07,07,46,1.70
2015,04,07,07,47,1.70
2015,04,07,07,48,1.70
2015,04,07,07,49,1.70
2015,04,07,07,50,1.70
2015,04,07,07,51,1.70
2015,04,07,07,52,1.60
2015,04,07,07,53,1.60
2015,04,07,07,54,1.60
2015,04,07,07,55,1.60
2015,04,07,07,56,1.60
2015,04,07,07,57,1.60
2015,04,07,07,58,1.60
2015,04,07,07,59,1.60
2015,04,07,08,00,1.50
2015,04,07,08,01,1.50
2015,04,07,08,02,1.50
2015,04,07,08,03,1.60
2015,04,07,08,04,1.60
2015,04,07,08,05,1.60
2015,04,07,08,06,1.60
2015,04,07,08,07,1.70
2015,04,07,08,08,1.80
2015,04,07,08,09,1.80
2015,04,07,08,10,1.90
2015,04,07,08,11,1.90
2015,04,07,08,12,2.00
2015,04,07,08,13,2.10
2015,04,07,08,14,2.10
2015,04,07,08,15,2.20
2015,04,07,08,16,2.20
2015,04,07,08,17,2.30
2015,04,07,08,18,2.30
2015,04,07,08,19,2.40
2015,04,07,08,20,2.40
2015,04,07,08,21,2.50
2015,04,07,08,22,2.60
2015,04,07,08,23,2.60
2015,04,07,08,24,2.70
2015,04,07,08,25,2.70
2015,04,07,08,26,2.80
2015,04,07,08,27,2.80
2015,04,07,08,28,2.80
2015,04,07,08,29,2.90
2015,04,07,08,30,2.90
2015,04,07,08,31,2.90
2015,04,07,08,32,3.00
2015,04,07,08,33,3.10
2015,04,07,08,34,3.10
2015,04,07,08,35,3.20
2015,04,07,08,36,3.20
2015,04,07,08,37,3.20
2015,04,07,08,38,3.30
2015,04,07,08,39,3.40
2015,04,07,08,40,3.50
2015,04,07,08,41,3.50
2015,04,07,08,42,3.60
2015,04,07,08,43,3.70
2015,04,07,08,44,3.70
2015,04,07,08,45,3.80
2015,04,07,08,46,3.90
2015,04,07,08,47,4.00
2015,04,07,08,48,4.00
2015,04,07,08,49,4.00
2015,04,07,08,50,4.10
2015,04,07,08,51,4.20
2015,04,07,08,52,4.20
2015,04,07,08,53,4.20
2015,04,07,08,54,4.30
2015,04,07,08,55,4.30
2015,04,07,08,56,4.40
2015,04,07,08,57,4.50
2015,04,07,08,58,4.50
2015,04,07,08,59,4.60
2015,04,07,09,00,4.70
2015,04,07,09,01,4.70
2015,04,07,09,02,4.80
2015,04,07,09,03,4.80
2015,04,07,09,04,4.90
2015,04,07,09,05,4.90
2015,04,07,09,06,5.00
2015,04,07,09,07,5.10
2015,04,07,09,08,5.20
2015,04,07,09,09,5.20
2015,04,07,09,10,5.30
2015,04,07,09,11,5.40
2015,04,07,09,12,5.50
2015,04,07,09,13,5.60
2015,04,07,09,14,5.70
2015,04,07,09,15,5.80
2015,04,07,09,16,5.80
2015,04,07,09,17,5.80
2015,04,07,09,18,5.80
2015,04,07,09,19,5.90
2015,04,07,09,20,5.90
2015,04,07,09,21,6.00
2015,04,07,09,22,6.10
2015,04,07,09,23,6.10
2015,04,07,09,24,6.20
2015,04,07,09,25,6.20
2015,04,07,09,26,6.20
2015,04,07,09,27,6.20
2015,04,07,09,28,6.30
2015,04,07,09,29,6.30
2015,04,07,09,30,6.30
2015,04,07,09,31,6.40
2015,04,07,09,32,6.50
2015,04,07,09,33,6.60
2015,04,07,09,34,6.70
2015,04,07,09,35,6.80
2015,04,07,09,36,6.90
2015,04,07,09,37,7.00
2015,04,07,09,38,7.20
2015,04,07,09,39,7.30
2015,04,07,09,40,7.40
2015,04,07,09,41,7.50
2015,04,07,09,42,7.50
2015,04,07,09,43,7.60
2015,04,07,09,44,7.70
2015,04,07,09,45,7.80
2015,04,07,09,46,7.90
2015,04,07,09,47,8.00
2015,04,07,09,48,8.00
2015,04,07,09,49,8.10
2015,04,07,09,50,8.10
2015,04,07,09,51,8.20
2015,04,07,09,52,8.20
2015,04,07,09,53,8.20
2015,04,07,09,54,8.20
2015,04,07,09,55,8.20
2015,04,07,09,56,8.20
2015,04,07,09,57,8.30
2015,04,07,09,58,8.30
2015,04,07,09,59,8.40
2015,04,07,10,00,8.40
2015,04,07,10,01,8.40
2015,04,07,10,02,8.40
2015,04,07,10,03,8.40
2015,04,07,10,04,8.40
2015,04,07,10,05,8.40
2015,04,07,10,06,8.30
2015,04,07,10,07,8.30
2015,04,07,10,08,8.20
2015,04,07,10,09,8.20
2015,04,07,10,10,8.20
2015,04,07,10,11,8.10
2015,04,07,10,12,8.10
2015,04,07,10,13,8.10
2015,04,07,10,14,8.20
2015,04,07,10,15,8.30
2015,04,07,10,16,8.30
2015,04,07,10,17,8.30
2015,04,07,10,18,8.30
2015,04,07,10,19,8.30
2015,04,07,10,20,8.30
2015,04,07,10,21,8.40
2015,04,07,10,22,8.50
2015,04,07,10,23,8.60
2015,04,07,10,24,8.70
2015,04,07,10,25,8.80
2015,04,07,10,26,8.90
2015,04,07,10,27,9.00
2015,04,07,10,28,9.20
2015,04,07,10,29,9.30
2015,04,07,10,30,9.40
2015,04,07,10,31,9.50
2015,04,07,10,32,9.60
2015,04,07,10,33,9.70
2015,04,07,10,34,9.70
2015,04,07,10,35,9.80
2015,04,07,10,36,9.80
2015,04,07,10,37,9.90
2015,04,07,10,38,9.90
2015,04,07,10,39,9.90
2015,04,07,10,40,9.90
2015,04,07,10,41,10.00
2015,04,07,10,42,10.10
2015,04,07,10,43,10.10
2015,04,07,10,44,10.10
2015,04,07,10,45,10.20
2015,04,07,10,46,10.20
2015,04,07,10,47,10.20
2015,04,07,10,48,10.20
2015,04,07,10,49,10.20
2015,04,07,10,50,10.20
2015,04,07,10,51,10.20
2015,04,07,10,52,10.20
2015,04,07,10,53,10.30
2015,04,07,10,54,10.30
2015,04,07,10,55,10.30
2015,04,07,10,56,10.40
2015,04,07,10,57,10.40
2015,04,07,10,58,10.40
2015,04,07,10,59,10.50
2015,04,07,11,00,10.50
2015,04,07,11,01,10.50
2015,04,07,11,02,10.40
2015,04,07,11,03,10.40
2015,04,07,11,04,10.50
2015,04,07,11,05,10.50
2015,04,07,11,06,10.50
2015,04,07,11,07,10.60
2015,04,07,11,08,10.60
2015,04,07,11,09,10.60
2015,04,07,11,10,10.60
2015,04,07,11,11,10.60
2015,04,07,11,12,10.70
2015,04,07,11,13,10.70
2015,04,07,11,14,10.70
2015,04,07,11,15,10.80
2015,04,07,11,16,10.80
2015,04,07,11,17,10.80
2015,04,07,11,18,10.80
2015,04,07,11,19,10.80
2015,04,07,11,20,10.80
2015,04,07,11,21,10.90
2015,04,07,11,22,10.90
2015,04,07,11,23,10.90
2015,04,07,11,24,11.00
2015,04,07,11,25,11.00
2015,04,07,11,26,11.10
2015,04,07,11,27,11.10
2015,04,07,11,28,11.10
2015,04,07,11,29,11.10
2015,04,07,11,30,11.10
2015,04,07,11,31,11.10
2015,04,07,11,32,11.10
2015,04,07,11,33,11.00
2015,04,07,11,34,11.00
2015,04,07,11,35,10.90
2015,04,07,11,36,10.90
2015,04,07,11,37,10.90
2015,04,07,11,38,10.90
2015,04,07,11,39,10.90
2015,04,07,11,40,10.90
2015,04,07,11,41,11.00
2015,04,07,11,42,11.10
2015,04,07,11,43,11.10
2015,04,07,11,44,11.20
2015,04,07,11,45,11.20
2015,04,07,11,46,11.20
2015,04,07,11,47,11.20
2015,04,07,11,48,11.20
2015,04,07,11,49,11.20
2015,04,07,11,50,11.30
2015,04,07,11,51,11.30
2015,04,07,11,52,11.40
2015,04,07,11,53,11.30
2015,04,07,11,54,11.30
2015,04,07,11,55,11.30
2015,04,07,11,56,11.30
2015,04,07,11,57,11.30
2015,04,07,11,58,11.30
2015,04,07,11,59,11.30
2015,04,07,12,00,11.30
2015,04,07,12,01,11.40
2015,04,07,12,02,11.40
2015,04,07,12,03,11.50
2015,04,07,12,04,11.50
2015,04,07,12,05,11.50
2015,04,07,12,06,11.50
2015,04,07,12,07,11.60
2015,04,07,12,08,11.70
2015,04,07,12,09,11.80
2015,04,07,12,10,11.80
2015,04,07,12,11,11.80
2015,04,07,12,12,11.80
2015,04,07,12,13,11.80
2015,04,07,12,14,11.90
2015,04,07,12,15,12.00
2015,04,07,12,16,12.10
2015,04,07,12,17,12.10
2015,04,07,12,18,12.10
2015,04,07,12,19,12.00
2015,04,07,12,20,12.00
2015,04,07,12,21,11.90
2015,04,07,12,22,11.90
2015,04,07,12,23,11.90
2015,04,07,12,24,12.00
2015,04,07,12,25,12.00
2015,04,07,12,26,12.00
2015,04,07,12,27,12.00
2015,04,07,12,28,12.00
2015,04,07,12,29,12.00
2015,04,07,12,30,12.00
2015,04,07,12,31,12.00
2015,04,07,12,32,12.10
2015,04,07,12,33,12.20
2015,04,07,12,34,12.30
2015,04,07,12,35,12.40
2015,04,07,12,36,12.50
2015,04,07,12,37,12.50
2015,04,07,12,38,12.50
2015,04,07,12,39,12.50
2015,04,07,12,40,12.60
2015,04,07,12,41,12.70
2015,04,07,12,42,12.70
2015,04,07,12,43,12.70
2015,04,07,12,44,12.70
2015,04,07,12,45,12.70
2015,04,07,12,46,12.70
2015,04,07,12,47,12.80
2015,04,07,12,48,12.80
2015,04,07,12,49,12.80
2015,04,07,12,50,12.80
2015,04,07,12,51,12.80
2015,04,07,12,52,12.80
2015,04,07,12,53,12.80
2015,04,07,12,54,12.90
2015,04,07,12,55,13.00
2015,04,07,12,56,13.00
2015,04,07,12,57,13.10
2015,04,07,12,58,13.20
2015,04,07,12,59,13.20
2015,04,07,13,00,13.20
2015,04,07,13,01,13.20
2015,04,07,13,02,13.30
2015,04,07,13,03,13.30
2015,04,07,13,04,13.30
2015,04,07,13,05,13.30
2015,04,07,13,06,13.30
2015,04,07,13,07,13.30
2015,04,07,13,08,13.30
2015,04,07,13,09,13.40
2015,04,07,13,10,13.40
2015,04,07,13,11,13.40
2015,04,07,13,12,13.40
2015,04,07,13,13,13.50
2015,04,07,13,14,13.40
2015,04,07,13,15,13.50
2015,04,07,13,16,13.50
2015,04,07,13,17,13.60
2015,04,07,13,18,13.60
2015,04,07,13,19,13.60
2015,04,07,13,20,13.60
2015,04,07,13,21,13.50
2015,04,07,13,22,13.50
2015,04,07,13,23,13.50
2015,04,07,13,24,13.60
2015,04,07,13,25,13.60
2015,04,07,13,26,13.70
2015,04,07,13,27,13.80
2015,04,07,13,28,13.80
2015,04,07,13,29,13.70
2015,04,07,13,30,13.60
2015,04,07,13,31,13.60
2015,04,07,13,32,13.50
2015,04,07,13,33,13.50
2015,04,07,13,34,13.40
2015,04,07,13,35,13.30
2015,04,07,13,36,13.30
2015,04,07,13,37,13.30
2015,04,07,13,38,13.20
2015,04,07,13,39,13.20
2015,04,07,13,40,13.10
2015,04,07,13,41,13.00
2015,04,07,13,42,13.00
2015,04,07,13,43,12.90
2015,04,07,13,44,12.80
2015,04,07,13,45,12.70
2015,04,07,13,46,12.70
2015,04,07,13,47,12.60
2015,04,07,13,48,12.50
2015,04,07,13,49,12.50
2015,04,07,13,50,12.50
2015,04,07,13,51,12.50
2015,04,07,13,52,12.60
2015,04,07,13,53,12.60
2015,04,07,13,54,12.60
2015,04,07,13,55,12.60
2015,04,07,13,56,12.70
2015,04,07,13,57,12.70
2015,04,07,13,58,12.70
2015,04,07,13,59,12.70
2015,04,07,14,00,12.80
2015,04,07,14,01,12.90
2015,04,07,14,02,12.90
2015,04,07,14,03,13.00
2015,04,07,14,04,13.00
2015,04,07,14,05,13.10
2015,04,07,14,06,13.10
2015,04,07,14,07,13.10
2015,04,07,14,08,13.20
2015,04,07,14,09,13.20
2015,04,07,14,10,13.30
2015,04,07,14,11,13.50
2015,04,07,14,12,13.70
2015,04,07,14,13,13.90
2015,04,07,14,14,14.00
2015,04,07,14,15,14.00
2015,04,07,14,16,14.10
2015,04,07,14,17,14.10
2015,04,07,14,18,14.10
2015,04,07,14,19,14.20
2015,04,07,14,20,14.20
2015,04,07,14,21,14.20
2015,04,07,14,22,14.30
2015,04,07,14,23,14.30
2015,04,07,14,24,14.30
2015,04,07,14,25,14.30
2015,04,07,14,26,14.40
2015,04,07,14,27,14.40
2015,04,07,14,28,14.40
2015,04,07,14,29,14.40
2015,04,07,14,30,14.40
2015,04,07,14,31,14.40
2015,04,07,14,32,14.40
2015,04,07,14,33,14.40
2015,04,07,14,34,14.40
2015,04,07,14,35,14.40
2015,04,07,14,36,14.40
2015,04,07,14,37,14.40
2015,04,07,14,38,14.30
2015,04,07,14,39,14.30
2015,04,07,14,40,14.40
2015,04,07,14,41,14.40
2015,04,07,14,42,14.40
2015,04,07,14,43,14.50
2015,04,07,14,44,14.50
2015,04,07,14,45,14.60
2015,04,07,14,46,14.60
2015,04,07,14,47,14.60
2015,04,07,14,48,14.70
2015,04,07,14,49,14.60
2015,04,07,14,50,14.60
2015,04,07,14,51,14.60
2015,04,07,14,52,14.60
2015,04,07,14,53,14.60
2015,04,07,14,54,14.60
2015,04,07,14,55,14.70
2015,04,07,14,56,14.70
2015,04,07,14,57,14.80
2015,04,07,14,58,14.80
2015,04,07,14,59,14.80
2015,04,07,15,00,14.80
2015,04,07,15,01,14.80
2015,04,07,15,02,14.80
2015,04,07,15,03,14.80
2015,04,07,15,04,14.80
2015,04,07,15,05,14.80
2015,04,07,15,06,14.80
2015,04,07,15,07,14.70
2015,04,07,15,08,14.70
2015,04,07,15,09,14.70
2015,04,07,15,10,14.70
2015,04,07,15,11,14.80
2015,04,07,15,12,14.80
2015,04,07,15,13,14.80
2015,04,07,15,14,14.90
2015,04,07,15,15,14.90
2015,04,07,15,16,15.00
2015,04,07,15,17,15.10
2015,04,07,15,18,15.10
2015,04,07,15,19,15.10
2015,04,07,15,20,15.10
2015,04,07,15,21,15.20
2015,04,07,15,22,15.20
2015,04,07,15,23,15.30
2015,04,07,15,24,15.30
2015,04,07,15,25,15.30
2015,04,07,15,26,15.40
2015,04,07,15,27,15.40
2015,04,07,15,28,15.40
2015,04,07,15,29,15.40
2015,04,07,15,30,15.40
2015,04,07,15,31,15.40
2015,04,07,15,32,15.50
2015,04,07,15,33,15.60
2015,04,07,15,34,15.70
2015,04,07,15,35,15.80
2015,04,07,15,36,15.90
2015,04,07,15,37,15.90
2015,04,07,15,38,16.00
2015,04,07,15,39,16.10
2015,04,07,15,40,16.10
2015,04,07,15,41,16.10
2015,04,07,15,42,16.20
2015,04,07,15,43,16.20
2015,04,07,15,44,16.30
2015,04,07,15,45,16.30
2015,04,07,15,46,16.30
2015,04,07,15,47,16.30
2015,04,07,15,48,16.30
2015,04,07,15,49,16.30
2015,04,07,15,50,16.20
2015,04,07,15,51,16.20
2015,04,07,15,52,16.30
2015,04,07,15,53,16.30
2015,04,07,15,54,16.30
2015,04,07,15,55,16.30
2015,04,07,15,56,16.30
2015,04,07,15,57,16.40
2015,04,07,15,58,16.40
2015,04,07,15,59,16.40
2015,04,07,16,00,16.40
2015,04,07,16,01,16.40
2015,04,07,16,02,16.40
2015,04,07,16,03,16.40
2015,04,07,16,04,16.40
2015,04,07,16,05,16.30
2015,04,07,16,06,16.30
2015,04,07,16,07,16.30
2015,04,07,16,08,16.30
2015,04,07,16,09,16.20
2015,04,07,16,10,16.10
2015,04,07,16,11,16.00
2015,04,07,16,12,15.90
2015,04,07,16,13,15.90
2015,04,07,16,14,15.80
2015,04,07,16,15,15.80
2015,04,07,16,16,15.70
2015,04,07,16,17,15.70
2015,04,07,16,18,15.60
2015,04,07,16,19,15.60
2015,04,07,16,20,15.50
2015,04,07,16,21,15.60
2015,04,07,16,22,15.60
2015,04,07,16,23,15.60
2015,04,07,16,24,15.70
2015,04,07,16,25,15.70
2015,04,07,16,26,15.70
2015,04,07,16,27,15.70
2015,04,07,16,28,15.70
2015,04,07,16,29,15.70
2015,04,07,16,30,15.70
2015,04,07,16,31,15.70
2015,04,07,16,32,15.70
2015,04,07,16,33,15.70
2015,04,07,16,34,15.70
2015,04,07,16,35,15.80
2015,04,07,16,36,15.80
2015,04,07,16,37,15.90
2015,04,07,16,38,15.90
2015,04,07,16,39,15.90
2015,04,07,16,40,16.00
2015,04,07,16,41,15.90
2015,04,07,16,42,15.90
2015,04,07,16,43,15.90
2015,04,07,16,44,16.00
2015,04,07,16,45,15.90
2015,04,07,16,46,15.90
2015,04,07,16,47,16.00
2015,04,07,16,48,16.00
2015,04,07,16,49,16.00
2015,04,07,16,50,15.90
2015,04,07,16,51,15.80
2015,04,07,16,52,15.70
2015,04,07,16,53,15.70
2015,04,07,16,54,15.60
2015,04,07,16,55,15.50
2015,04,07,16,56,15.40
2015,04,07,16,57,15.20
2015,04,07,16,58,15.20
2015,04,07,16,59,15.00
2015,04,07,17,00,14.90
2015,04,07,17,01,14.70
2015,04,07,17,02,14.60
2015,04,07,17,03,14.40
2015,04,07,17,04,14.20
2015,04,07,17,05,14.10
2015,04,07,17,06,14.00
2015,04,07,17,07,13.90
2015,04,07,17,08,13.80
2015,04,07,17,09,13.70
2015,04,07,17,10,13.70
2015,04,07,17,11,13.60
2015,04,07,17,12,13.60
2015,04,07,17,13,13.60
2015,04,07,17,14,13.50
2015,04,07,17,15,13.50
2015,04,07,17,16,13.40
2015,04,07,17,17,13.40
2015,04,07,17,18,13.40
2015,04,07,17,19,13.30
2015,04,07,17,20,13.20
2015,04,07,17,21,13.20
2015,04,07,17,22,13.10
2015,04,07,17,23,13.00
2015,04,07,17,24,13.00
2015,04,07,17,25,12.90
2015,04,07,17,26,12.80
2015,04,07,17,27,12.80
2015,04,07,17,28,12.70
2015,04,07,17,29,12.60
2015,04,07,17,30,12.60
2015,04,07,17,31,12.50
2015,04,07,17,32,12.50
2015,04,07,17,33,12.50
2015,04,07,17,34,12.40
2015,04,07,17,35,12.40
2015,04,07,17,36,12.30
2015,04,07,17,37,12.30
2015,04,07,17,38,12.20
2015,04,07,17,39,12.20
2015,04,07,17,40,12.20
2015,04,07,17,41,12.10
2015,04,07,17,42,12.10
2015,04,07,17,43,12.10
2015,04,07,17,44,12.00
2015,04,07,17,45,12.00
2015,04,07,17,46,11.90
2015,04,07,17,47,11.90
2015,04,07,17,48,11.90
2015,04,07,17,49,11.80
2015,04,07,17,50,11.80
2015,04,07,17,51,11.80
2015,04,07,17,52,11.80
2015,04,07,17,53,11.80
2015,04,07,17,54,11.80
2015,04,07,17,55,11.70
2015,04,07,17,56,11.70
2015,04,07,17,57,11.70
2015,04,07,17,58,11.70
2015,04,07,17,59,11.70
2015,04,07,18,00,11.70
2015,04,07,18,01,11.60
2015,04,07,18,02,11.60
2015,04,07,18,03,11.60
2015,04,07,18,04,11.60
2015,04,07,18,05,11.60
2015,04,07,18,06,11.60
2015,04,07,18,07,11.70
2015,04,07,18,08,11.70
2015,04,07,18,09,11.80
2015,04,07,18,10,12.00
2015,04,07,18,11,12.10
2015,04,07,18,12,12.10
2015,04,07,18,13,12.20
2015,04,07,18,14,12.20
2015,04,07,18,15,12.30
2015,04,07,18,16,12.30
2015,04,07,18,17,12.40
2015,04,07,18,18,12.40
2015,04,07,18,19,12.40
2015,04,07,18,20,12.40
2015,04,07,18,21,12.40
2015,04,07,18,22,12.40
2015,04,07,18,23,12.40
2015,04,07,18,24,12.30
2015,04,07,18,25,12.40
2015,04,07,18,26,12.40
2015,04,07,18,27,12.50
2015,04,07,18,28,12.50
2015,04,07,18,29,12.40
2015,04,07,18,30,12.40
2015,04,07,18,31,12.30
2015,04,07,18,32,12.20
2015,04,07,18,33,12.10
2015,04,07,18,34,12.00
2015,04,07,18,35,11.90
2015,04,07,18,36,11.80
2015,04,07,18,37,11.80
2015,04,07,18,38,11.80